This is the latest recevied weather packets stored in our database for station/object KI4MRC. If no packets are shown the sender has not sent any weather packets the latest 1 day(s).
| Time | Temp. | Humidity | Pressure | Rain* | Wind** | Luminosity | Snow |
|---|---|---|---|---|---|---|---|
| 1778058056 | 21.67° C | 97% | 1015 hPa | 0 mm | 0.89 m/s, 69° | 0 W/m² | - |
| 1778057754 | 21.67° C | 96% | 1014.9 hPa | 0 mm | 0.89 m/s, 74° | 0 W/m² | - |
| 1778057450 | 21.67° C | 96% | 1015 hPa | 0 mm | 0.89 m/s, 72° | 0 W/m² | - |
| 1778057147 | 21.67° C | 96% | 1015.1 hPa | 0 mm | 0.89 m/s, 73° | 0 W/m² | - |
| 1778056843 | 21.67° C | 96% | 1015.2 hPa | 0 mm | 0.89 m/s, 66° | 0 W/m² | - |
| 1778056540 | 21.67° C | 96% | 1014.9 hPa | 0 mm | 0.89 m/s, 81° | 0 W/m² | - |
| 1778056238 | 21.67° C | 96% | 1015.1 hPa | 0 mm | 0.89 m/s, 72° | 0 W/m² | - |
| 1778055934 | 21.67° C | 96% | 1015.3 hPa | 0 mm | 0.89 m/s, 74° | 0 W/m² | - |
| 1778055630 | 21.67° C | 96% | 1015.3 hPa | 0 mm | 0.89 m/s, 79° | 0 W/m² | - |
| 1778055328 | 21.67° C | 96% | 1015.1 hPa | 0 mm | 0.89 m/s, 76° | 0 W/m² | - |
| 1778055026 | 21.67° C | 95% | 1015.5 hPa | 0 mm | 0.89 m/s, 71° | 0 W/m² | - |
| 1778054723 | 21.67° C | 95% | 1015.3 hPa | 0 mm | 0.89 m/s, 92° | 0 W/m² | - |
| 1778054420 | 22.22° C | 95% | 1015.2 hPa | 0 mm | 0.89 m/s, 81° | 0 W/m² | - |
| 1778054118 | 22.22° C | 95% | 1015.3 hPa | 0 mm | 0.89 m/s, 66° | 0 W/m² | - |
| 1778053814 | 22.22° C | 95% | 1015.1 hPa | 0 mm | 0.89 m/s, 61° | 0 W/m² | - |
| 1778053512 | 22.22° C | 95% | 1015.1 hPa | 0 mm | 0.89 m/s, 66° | 0 W/m² | - |
| 1778053209 | 22.22° C | 94% | 1014.9 hPa | 0 mm | 0.89 m/s, 79° | 0 W/m² | - |
| 1778052906 | 22.22° C | 94% | 1015.1 hPa | 0 mm | 0.89 m/s, 81° | 0 W/m² | - |
| 1778052603 | 22.22° C | 94% | 1015 hPa | 0 mm | 0.89 m/s, 67° | 0 W/m² | - |
| 1778052300 | 22.78° C | 94% | 1015.1 hPa | 0 mm | 0.89 m/s, 75° | 0 W/m² | - |
| 1778051998 | 22.78° C | 93% | 1014.9 hPa | 0 mm | 0.89 m/s, 71° | 0 W/m² | - |
| 1778051696 | 22.78° C | 92% | 1014.9 hPa | 0 mm | 0.89 m/s, 80° | 0 W/m² | - |
| 1778051393 | 22.78° C | 92% | 1015.1 hPa | 0 mm | 0.89 m/s, 82° | 0 W/m² | - |
| 1778051090 | 22.78° C | 92% | 1015 hPa | 0 mm | 0.89 m/s, 79° | 0 W/m² | - |
| 1778050787 | 23.33° C | 92% | 1015.2 hPa | 0 mm | 0.89 m/s, 83° | 0 W/m² | - |
* Rain latest hour (hover to see other rain measurements)
** Current wind speed in m/s (hover to see current wind gust speed)